{"data":{"norad_id":64339,"intl_designator":"2025-124Y","name":"STARLINK-34017","alt_names":[],"object_type":"PAYLOAD","status":"ACTIVE","operator":null,"country":"US","launch_date":"2025-06-10","launch_site_code":"AFETR","launch_vehicle":null,"mission":null,"orbit_class":"UNKNOWN","rcs_meters":null,"size_class":null,"mass_kg":null,"dimensions":null,"purposes":["comms"],"wikipedia_slug":null,"has_3d_model":false,"image_url":null,"decayed_at":null,"tle_current":{"epoch":"2026-05-25T01:56:54.866976Z","epoch_age_seconds":78115,"freshness":"FRESH","line1":"1 64339U 25124Y   26145.08119059  .00009172  00000+0  34231-3 0  9994","line2":"2 64339  42.9991  50.2692 0001334 259.3282 100.7419 15.27590494 53463","mean_motion":15.27590494,"eccentricity":0.0001334,"inclination_deg":42.9991,"raan_deg":50.2692,"arg_perigee_deg":259.3282,"mean_anomaly_deg":100.7419,"bstar":0.00034231,"rev_number":5346,"period_min":94.266101134824,"perigee_km":482.10239537491,"apogee_km":483.93295144178,"semimajor_km":6861.1546734083,"source":"CELESTRAK","updated_at":"2026-05-25T13:38:20.399466Z"}}}